SCP
0 0 0 0 0 0 0 0 0 0 0 0 0 0 0 0 0 0 0 0 0 0 0 0 0 0 0 0 0 0 0 0 0 0 0 0 0 0 0 0 0 0 0
0 0 0 0 0 0 0 0 0 0 0 0 0 0 0 0 0 0 0 0 0 0 0 0 0 0 0 0 0 0 0 0 0 0 0 0 0 0 0 0 0 0 0
0 0 0 0 0 0 0 0 0 0 0 0 0 0 0 0 0 0 0 0 0 0 0 0 0 0 0 0 0 0 0 0 0 0 0 0 0 0 0 0 0 0 0
0 0 0 0 0 0 0 0 0 0 0 0 0 0 0 0 0 0 0 0 0 0 0 0 0 0 0 0 0 0 0 0 0 0 0 0 0 0 0 0 0 0 0
0 0 0 0 0 0 0 0 0 0 0 0 0 0 0 0 0 0 0 0 0 0 0 0 0 0 0 0 0 0 0 0 0 0 0 0 0 0 0 0 0 0 0
0 0 0 0 0 0 0 0 0 0 0 0 0 0 0 0 0 0 0 0 0 0 0 0 0 0 0 0 0 0 0 0 0 0 0 0 0 0 0 0 0 0 0
0 0 0 0 0 0 0 0 0 0 0 0 0 0 0 0 0 0 0 0 0 0 0 0 0 0 0 0 0 0 0 0 0 0 0 0 0 0 0 0 0 0 0
0 0 0 0 0 0 0 0 0 0 0 0 0 0 0 0 0 0 0 0 0 0 0 0 0 0 0 0 0 0 0 0 0 0 0 0 0 0 0 0 0 0 0
0 0 0 0 0 0 0 0 0 0 0 0 0 0 0 0 0 0 0 0 0 0 0 0 0 0 0 0 0 0 0 0 0 0 0 0 0 0 0 0 0 0 0
0 0 0 0 0 0 0 0 0 0 0 0 0 0 0 0 0 0 0 0 0 0 0 0 0 0 0 0 0 0 0 0 0 0 0 0 0 0 0 0 0 0 0
0 0 0 0 0 0 0 0 0 0 0 0 0 0 0 0 0 0 0 0 0 0 0 0 0 0 0 0 0 0 0 0 0 0 0 0 0 0 0 0 0 0 0
0 0 0 0 0 0 0 0 0 0 0 0 0 0 0 0 0 0 0 0 0 0 0 0 0 0 0 0 0 0 0 0 0 0 0 0 0 0 0 0 0 0 0
0 0 0 0 0 0 0 0 0 0 0 0 0 0 0 0 0 0 0 0 0 0 0 0 0 0 0 0 0 0 0 0 0 0 0 0 0 0 0 0 0 0 0
0 0 0 0 0 0 0 0 0 0 0 0 0 0 0 0 0 0 0 0 0 0 0 0 0 0 0 0 0 0 0 0 0 0 0 0 0 0 0 0 0 0 0
0 0 0 0 0 0 0 0 0 0 0 0 0 0 0 0 0 0 0 0 0 0 0 0 0 0 0 0 0 0 0 0 0 0 0 0 0 0 0 0 0 0 0
0 0 0 0 0 0 0 0 0 0 0 0 0 0 0 0 0 0 0 0 0 0 0 0 0 0 0 0 0 0 0 0 0 0 0 0 0 0 0 0 0 0 0
0 0 0 0 0 0 0 0 0 0 0 0 0 0 0 0 0 0 0 0 0 0 0 0 0 0 0 0 0 0 0 0 0 0 0 0 0 0 0 0 0 0 0
0 0 0 0 0 0 0 0 0 0 0 0 0 0 0 0 0 0 0 0 0 0 0 0 0 0 0 0 0 0 0 0 0 0 0 0 0 0 0 0 0 0 0
0 0 0 0 0 0 0 0 0 0 0 0 0 0 0 0 0 0 0 0 0 0 0 0 0 0 0 0 0 0 0 0 0 0 0 0 0 0 0 0 0 0 0
0 0 0 0 0 0 0 0 0 0 0 0 0 0 0 0 0 0 0 0 0 0 0 0 0 0 0 0 0 0 0 0 0 0 0 0 0 0 0 0 0 0 0
0 0 0 0 0 0 0 0 0 0 0 0 0 0 0 0 0 0 0 0 0 0 0 0 0 0 0 0 0 0 0 0 0 0 0 0 0 0 0 0 0 0 0
0 0 0 0 0 0 0 0 0 0 0 0 0 0 0 0 0 0 0 0 0 0 0 0 0 0 0 0 0 0 0 0 0 0 0 0 0 0 0 0 0 0 0
0 0 0 0 0 0 0 0 0 0 0 0 0 0 0 0 0 0 0 0 0 0 0 0 0 0 0 0 0 0 0 0 0 0 0 0 0 0 0 0 0 0 0
0 0 0 0 0 0 0 0 0 0 0 0 0 0 0 0 0 0 0 0 0 0 0 0 0 0 0 0 0 0 0 0 0 0 0 0 0 0 0 0 0 0 0
0 0 0 0 0 0 0 0 0 0 0 0 0 0 0 0 0 0 0 0 0 0 0 0 0 0 0 0 0 0 0 0 0 0 0 0 0 0 0 0 0 0 0
0 0 0 0 0 0 0 0 0 0 0 0 0 0 0 0 0 0 0 0 0 0 0 0 0 0 0 0 0 0 0 0 0 0 0 0 0 0 0 0 0 0 0
Wind_Speed_500mb
75 78 80 79 78 75 74 71 68 68 66 66 64 63 55 58 48 41 42 43 41 44 38 39 39 29 31 28 24 22 20 20 21 25 26 20 16 17 21 26 30 38 47
56 59 59 60 62 62 64 60 64 63 60 60 58 56 57 55 51 42 45 49 44 47 44 36 35 31 29 27 24 22 22 22 22 22 23 20 18 22 27 31 35 41 49
41 46 48 50 53 53 57 62 60 60 58 54 52 53 59 54 49 43 43 44 45 47 36 34 33 29 29 26 25 26 25 24 22 20 19 19 21 25 31 36 41 44 50
36 39 42 44 48 52 55 57 58 53 47 44 46 49 48 44 40 44 46 43 41 37 35 33 30 30 28 27 27 27 27 26 22 19 19 20 22 27 34 42 47 50 55
35 36 39 41 44 44 45 44 41 40 39 40 45 44 43 40 40 42 42 41 39 36 35 33 33 31 27 27 27 28 27 24 21 21 22 21 26 29 36 41 50 56 60
34 33 33 33 33 32 34 35 34 37 42 47 46 42 37 38 37 40 38 39 37 35 34 34 30 27 26 28 29 29 26 24 24 22 24 26 30 34 38 43 50 56 64
34 32 32 31 32 31 31 37 38 44 48 48 46 40 38 37 39 39 37 36 35 35 33 29 26 26 26 28 29 27 26 25 25 26 27 30 33 34 41 47 50 53 57
34 33 34 33 33 34 39 38 41 44 47 51 45 41 39 42 44 45 42 38 35 32 29 27 27 27 28 28 28 27 26 24 24 27 30 34 37 37 40 44 51 56 59
38 37 35 35 35 38 41 43 46 47 49 50 45 44 43 47 47 45 41 38 34 30 31 29 28 29 30 28 28 28 26 25 28 31 34 37 37 36 39 45 48 54 64
38 35 34 34 35 37 40 45 46 46 45 47 46 44 43 44 42 42 41 38 35 33 32 30 31 33 31 28 28 28 28 29 32 33 37 36 34 34 37 39 43 48 51
37 35 34 34 36 38 41 43 44 45 46 45 44 45 44 42 43 44 42 39 34 33 32 32 32 32 30 30 30 29 31 31 34 38 38 36 35 35 37 38 39 42 44
38 36 34 34 36 37 40 41 42 42 43 45 47 47 47 47 48 49 45 38 35 36 34 34 32 32 32 34 33 32 33 37 38 39 37 36 36 36 37 38 39 38 37
33 32 33 36 38 37 39 41 43 44 44 46 50 50 52 55 54 50 45 39 40 38 37 35 35 37 38 37 38 37 38 39 39 39 38 38 38 37 37 40 39 40 37
26 30 33 34 35 37 39 42 42 42 46 52 54 54 54 54 52 51 46 44 43 41 40 42 42 42 41 44 44 43 43 42 42 43 43 42 40 38 38 40 42 42 43
20 25 28 30 33 36 40 41 42 44 46 49 51 53 54 53 49 48 46 44 43 41 43 46 48 48 48 49 49 48 48 48 49 49 48 46 43 42 40 40 40 40 40
13 19 23 26 30 33 36 41 44 46 49 52 52 52 51 50 49 47 46 47 47 48 53 54 52 52 53 52 54 55 55 57 56 55 53 51 48 46 43 40 40 38 37
11 15 18 21 26 31 36 40 44 46 49 52 53 54 54 54 53 53 52 51 49 56 63 64 59 57 57 57 60 61 61 61 60 56 56 55 53 50 47 43 39 38 36
12 15 19 22 25 30 34 38 42 44 46 48 50 53 55 59 59 58 57 55 59 69 71 68 61 59 59 62 65 65 64 63 60 59 59 58 56 52 48 45 42 38 37
14 17 20 22 25 29 33 37 40 43 46 48 50 52 54 59 62 59 61 68 67 73 72 70 63 62 62 64 66 66 65 64 63 62 61 60 57 55 51 47 44 40 36
17 20 23 24 26 29 32 36 40 43 46 49 51 51 54 56 59 60 62 64 66 74 74 72 65 62 64 65 67 67 68 68 67 65 61 60 57 55 52 50 46 41 37
17 19 22 25 29 32 35 38 42 45 48 50 52 54 57 61 64 65 66 70 70 79 80 76 74 73 70 71 71 71 71 71 69 65 62 60 59 58 53 51 47 43 38
21 23 25 27 29 32 36 39 44 48 52 56 57 60 63 68 72 77 74 76 74 78 81 82 82 83 82 78 78 72 72 73 70 67 63 61 60 59 56 54 49 46 44
27 29 31 33 35 38 41 44 47 51 55 58 62 65 69 72 74 78 80 79 77 78 78 79 82 84 82 80 80 75 72 75 68 66 65 63 61 59 56 53 51 50 48
36 39 41 44 46 48 50 52 55 58 61 63 66 70 74 76 79 79 76 78 81 81 81 80 78 78 79 76 75 74 75 73 70 69 66 64 65 62 60 58 53 52 51
49 52 54 56 57 59 61 62 63 63 65 66 68 70 71 73 74 74 73 72 72 72 74 74 76 76 74 73 73 72 71 67 67 67 66 63 65 64 62 60 56 55 53
60 61 62 63 64 64 64 65 66 66 67 68 69 69 69 68 67 66 65 64 63 63 63 65 65 64 64 63 63 62 62 62 61 61 63 63 64 64 63 61 57 57 54
Wind_Direction_500mb
239 238 240 239 239 240 243 243 237 240 240 242 241 239 233 236 236 249 248 247 249 249 248 245 229 248 240 248 244 250 260 266 270 273 276 288 294 313 331 341 347 350 349
239 240 241 241 244 244 244 244 246 245 243 242 239 233 232 226 229 237 246 247 227 252 247 225 235 234 239 242 251 261 265 271 278 276 283 289 300 316 333 339 347 350 347
242 240 239 239 240 241 242 245 248 248 247 242 234 224 226 223 229 239 238 241 247 233 219 230 234 237 238 244 254 265 272 278 276 268 268 282 301 315 329 334 341 343 344
238 239 240 242 244 246 246 246 246 246 241 228 217 218 217 222 231 239 240 234 222 225 227 229 229 233 239 249 263 272 282 281 273 267 269 283 300 312 322 327 331 336 338
241 243 245 244 244 242 241 239 233 227 211 206 216 214 214 230 240 231 226 221 229 228 226 223 227 235 245 262 275 281 277 276 273 270 282 292 301 311 318 326 329 333 336
243 241 240 239 237 233 228 217 210 201 207 203 211 211 232 239 231 225 225 229 223 220 222 228 234 242 260 270 271 272 272 271 267 274 285 297 305 315 316 323 326 331 333
241 236 233 230 227 223 214 206 205 203 200 212 212 223 231 231 223 223 219 217 217 220 225 232 244 258 268 271 275 271 263 260 266 280 291 299 304 309 311 317 323 326 324
235 234 231 228 225 215 208 210 208 212 218 212 218 226 233 223 220 215 210 211 217 223 230 241 253 262 269 269 269 267 264 268 277 290 296 300 303 305 310 315 316 318 319
233 234 234 232 228 220 211 210 213 216 217 219 222 226 224 217 211 210 211 215 217 226 240 248 257 264 265 264 265 264 268 274 282 289 296 300 301 307 311 313 316 318 322
238 238 237 236 234 228 219 215 216 218 222 224 223 220 215 214 213 215 214 216 222 235 243 250 258 260 262 260 258 262 266 275 285 290 297 300 303 305 309 313 314 315 319
239 237 236 232 230 228 228 225 223 223 224 224 221 218 214 215 217 218 218 223 233 239 245 253 258 258 258 257 259 263 270 282 286 293 297 299 303 306 308 312 314 314 314
234 236 236 236 235 231 229 226 227 224 222 221 219 220 220 221 220 219 221 230 236 241 249 253 253 257 256 256 261 266 273 278 286 291 293 295 297 301 305 309 310 309 311
235 236 237 236 233 229 228 228 224 223 224 227 228 229 227 225 224 223 227 235 238 245 250 252 253 256 257 259 261 267 273 281 287 288 289 290 293 296 300 304 309 312 314
235 234 234 234 233 231 230 230 230 232 233 234 234 234 234 233 231 231 235 239 242 249 250 254 255 256 256 258 263 268 274 279 283 283 285 286 287 289 295 302 307 313 316
230 230 232 234 234 233 233 234 237 237 238 243 246 244 243 243 242 240 247 248 255 255 255 255 255 256 257 260 264 269 273 276 278 279 280 280 281 284 288 294 302 307 311
239 241 241 241 243 244 246 245 243 243 242 242 244 245 247 245 242 244 245 249 253 256 258 257 257 259 261 265 267 270 271 274 275 277 279 279 280 280 283 289 294 299 306
246 249 251 252 253 253 253 253 254 253 251 250 250 248 247 246 244 250 249 254 257 258 257 259 260 262 264 265 268 269 271 272 274 276 277 277 276 277 281 283 286 293 299
276 269 263 258 257 258 260 261 261 262 262 260 258 255 253 251 249 250 251 255 254 254 256 259 261 264 266 267 268 270 271 272 274 274 273 273 274 275 277 279 282 286 292
290 277 271 268 265 264 265 266 268 268 269 268 266 263 261 260 257 259 260 259 255 258 258 262 267 268 269 269 269 270 271 272 272 271 272 272 272 272 273 274 276 279 283
309 300 292 283 276 273 272 272 272 273 273 273 273 271 267 264 264 272 278 270 264 263 264 266 265 266 269 272 272 271 272 271 271 271 271 270 270 270 271 271 270 271 274
330 317 306 298 294 290 286 283 280 279 278 276 274 272 270 269 266 271 276 277 270 269 270 270 267 270 267 267 269 270 272 272 271 269 269 269 269 269 268 267 267 268 268
333 325 318 312 306 301 296 292 288 286 284 282 280 279 276 274 273 274 278 276 270 272 273 274 273 272 277 270 271 270 271 273 272 271 269 268 265 264 264 263 262 263 265
329 325 321 317 312 308 303 298 294 291 288 286 283 281 279 277 277 277 279 279 275 274 272 271 274 273 276 275 271 268 266 268 267 264 263 263 263 262 261 260 260 262 263
318 314 312 309 307 304 301 299 297 295 292 290 288 287 285 284 283 281 280 280 280 279 278 275 271 271 274 273 270 269 268 267 266 265 262 260 260 259 258 258 259 261 263
305 303 302 300 299 298 297 296 295 295 294 294 293 292 291 289 287 286 285 283 279 277 276 276 275 274 273 273 272 271 270 268 266 266 264 261 261 260 259 258 257 258 261
297 295 295 294 293 293 294 294 295 295 296 297 297 296 295 294 292 291 288 285 283 281 279 278 278 278 277 274 273 272 271 269 264 262 262 261 259 259 258 258 258 259 262
Wind_Speed_850mb
75 78 80 79 78 75 74 71 68 68 66 66 64 63 55 58 48 41 42 43 41 44 38 39 39 29 31 28 24 22 20 20 21 25 26 20 16 17 21 26 30 38 47
56 59 59 60 62 62 64 60 64 63 60 60 58 56 57 55 51 42 45 49 44 47 44 36 35 31 29 27 24 22 22 22 22 22 23 20 18 22 27 31 35 41 49
41 46 48 50 53 53 57 62 60 60 58 54 52 53 59 54 49 43 43 44 45 47 36 34 33 29 29 26 25 26 25 24 22 20 19 19 21 25 31 36 41 44 50
36 39 42 44 48 52 55 57 58 53 47 44 46 49 48 44 40 44 46 43 41 37 35 33 30 30 28 27 27 27 27 26 22 19 19 20 22 27 34 42 47 50 55
35 36 39 41 44 44 45 44 41 40 39 40 45 44 43 40 40 42 42 41 39 36 35 33 33 31 27 27 27 28 27 24 21 21 22 21 26 29 36 41 50 56 60
34 33 33 33 33 32 34 35 34 37 42 47 46 42 37 38 37 40 38 39 37 35 34 34 30 27 26 28 29 29 26 24 24 22 24 26 30 34 38 43 50 56 64
34 32 32 31 32 31 31 37 38 44 48 48 46 40 38 37 39 39 37 36 35 35 33 29 26 26 26 28 29 27 26 25 25 26 27 30 33 34 41 47 50 53 57
34 33 34 33 33 34 39 38 41 44 47 51 45 41 39 42 44 45 42 38 35 32 29 27 27 27 28 28 28 27 26 24 24 27 30 34 37 37 40 44 51 56 59
38 37 35 35 35 38 41 43 46 47 49 50 45 44 43 47 47 45 41 38 34 30 31 29 28 29 30 28 28 28 26 25 28 31 34 37 37 36 39 45 48 54 64
38 35 34 34 35 37 40 45 46 46 45 47 46 44 43 44 42 42 41 38 35 33 32 30 31 33 31 28 28 28 28 29 32 33 37 36 34 34 37 39 43 48 51
37 35 34 34 36 38 41 43 44 45 46 45 44 45 44 42 43 44 42 39 34 33 32 32 32 32 30 30 30 29 31 31 34 38 38 36 35 35 37 38 39 42 44
38 36 34 34 36 37 40 41 42 42 43 45 47 47 47 47 48 49 45 38 35 36 34 34 32 32 32 34 33 32 33 37 38 39 37 36 36 36 37 38 39 38 37
33 32 33 36 38 37 39 41 43 44 44 46 50 50 52 55 54 50 45 39 40 38 37 35 35 37 38 37 38 37 38 39 39 39 38 38 38 37 37 40 39 40 37
26 30 33 34 35 37 39 42 42 42 46 52 54 54 54 54 52 51 46 44 43 41 40 42 42 42 41 44 44 43 43 42 42 43 43 42 40 38 38 40 42 42 43
20 25 28 30 33 36 40 41 42 44 46 49 51 53 54 53 49 48 46 44 43 41 43 46 48 48 48 49 49 48 48 48 49 49 48 46 43 42 40 40 40 40 40
13 19 23 26 30 33 36 41 44 46 49 52 52 52 51 50 49 47 46 47 47 48 53 54 52 52 53 52 54 55 55 57 56 55 53 51 48 46 43 40 40 38 37
11 15 18 21 26 31 36 40 44 46 49 52 53 54 54 54 53 53 52 51 49 56 63 64 59 57 57 57 60 61 61 61 60 56 56 55 53 50 47 43 39 38 36
12 15 19 22 25 30 34 38 42 44 46 48 50 53 55 59 59 58 57 55 59 69 71 68 61 59 59 62 65 65 64 63 60 59 59 58 56 52 48 45 42 38 37
14 17 20 22 25 29 33 37 40 43 46 48 50 52 54 59 62 59 61 68 67 73 72 70 63 62 62 64 66 66 65 64 63 62 61 60 57 55 51 47 44 40 36
17 20 23 24 26 29 32 36 40 43 46 49 51 51 54 56 59 60 62 64 66 74 74 72 65 62 64 65 67 67 68 68 67 65 61 60 57 55 52 50 46 41 37
17 19 22 25 29 32 35 38 42 45 48 50 52 54 57 61 64 65 66 70 70 79 80 76 74 73 70 71 71 71 71 71 69 65 62 60 59 58 53 51 47 43 38
21 23 25 27 29 32 36 39 44 48 52 56 57 60 63 68 72 77 74 76 74 78 81 82 82 83 82 78 78 72 72 73 70 67 63 61 60 59 56 54 49 46 44
27 29 31 33 35 38 41 44 47 51 55 58 62 65 69 72 74 78 80 79 77 78 78 79 82 84 82 80 80 75 72 75 68 66 65 63 61 59 56 53 51 50 48
36 39 41 44 46 48 50 52 55 58 61 63 66 70 74 76 79 79 76 78 81 81 81 80 78 78 79 76 75 74 75 73 70 69 66 64 65 62 60 58 53 52 51
49 52 54 56 57 59 61 62 63 63 65 66 68 70 71 73 74 74 73 72 72 72 74 74 76 76 74 73 73 72 71 67 67 67 66 63 65 64 62 60 56 55 53
60 61 62 63 64 64 64 65 66 66 67 68 69 69 69 68 67 66 65 64 63 63 63 65 65 64 64 63 63 62 62 62 61 61 63 63 64 64 63 61 57 57 54
Wind_Direction_850mb
239 238 240 239 239 240 243 243 237 240 240 242 241 239 233 236 236 249 248 247 249 249 248 245 229 248 240 248 244 250 260 266 270 273 276 288 294 313 331 341 347 350 349
239 240 241 241 244 244 244 244 246 245 243 242 239 233 232 226 229 237 246 247 227 252 247 225 235 234 239 242 251 261 265 271 278 276 283 289 300 316 333 339 347 350 347
242 240 239 239 240 241 242 245 248 248 247 242 234 224 226 223 229 239 238 241 247 233 219 230 234 237 238 244 254 265 272 278 276 268 268 282 301 315 329 334 341 343 344
238 239 240 242 244 246 246 246 246 246 241 228 217 218 217 222 231 239 240 234 222 225 227 229 229 233 239 249 263 272 282 281 273 267 269 283 300 312 322 327 331 336 338
241 243 245 244 244 242 241 239 233 227 211 206 216 214 214 230 240 231 226 221 229 228 226 223 227 235 245 262 275 281 277 276 273 270 282 292 301 311 318 326 329 333 336
243 241 240 239 237 233 228 217 210 201 207 203 211 211 232 239 231 225 225 229 223 220 222 228 234 242 260 270 271 272 272 271 267 274 285 297 305 315 316 323 326 331 333
241 236 233 230 227 223 214 206 205 203 200 212 212 223 231 231 223 223 219 217 217 220 225 232 244 258 268 271 275 271 263 260 266 280 291 299 304 309 311 317 323 326 324
235 234 231 228 225 215 208 210 208 212 218 212 218 226 233 223 220 215 210 211 217 223 230 241 253 262 269 269 269 267 264 268 277 290 296 300 303 305 310 315 316 318 319
233 234 234 232 228 220 211 210 213 216 217 219 222 226 224 217 211 210 211 215 217 226 240 248 257 264 265 264 265 264 268 274 282 289 296 300 301 307 311 313 316 318 322
238 238 237 236 234 228 219 215 216 218 222 224 223 220 215 214 213 215 214 216 222 235 243 250 258 260 262 260 258 262 266 275 285 290 297 300 303 305 309 313 314 315 319
239 237 236 232 230 228 228 225 223 223 224 224 221 218 214 215 217 218 218 223 233 239 245 253 258 258 258 257 259 263 270 282 286 293 297 299 303 306 308 312 314 314 314
234 236 236 236 235 231 229 226 227 224 222 221 219 220 220 221 220 219 221 230 236 241 249 253 253 257 256 256 261 266 273 278 286 291 293 295 297 301 305 309 310 309 311
235 236 237 236 233 229 228 228 224 223 224 227 228 229 227 225 224 223 227 235 238 245 250 252 253 256 257 259 261 267 273 281 287 288 289 290 293 296 300 304 309 312 314
235 234 234 234 233 231 230 230 230 232 233 234 234 234 234 233 231 231 235 239 242 249 250 254 255 256 256 258 263 268 274 279 283 283 285 286 287 289 295 302 307 313 316
230 230 232 234 234 233 233 234 237 237 238 243 246 244 243 243 242 240 247 248 255 255 255 255 255 256 257 260 264 269 273 276 278 279 280 280 281 284 288 294 302 307 311
239 241 241 241 243 244 246 245 243 243 242 242 244 245 247 245 242 244 245 249 253 256 258 257 257 259 261 265 267 270 271 274 275 277 279 279 280 280 283 289 294 299 306
246 249 251 252 253 253 253 253 254 253 251 250 250 248 247 246 244 250 249 254 257 258 257 259 260 262 264 265 268 269 271 272 274 276 277 277 276 277 281 283 286 293 299
276 269 263 258 257 258 260 261 261 262 262 260 258 255 253 251 249 250 251 255 254 254 256 259 261 264 266 267 268 270 271 272 274 274 273 273 274 275 277 279 282 286 292
290 277 271 268 265 264 265 266 268 268 269 268 266 263 261 260 257 259 260 259 255 258 258 262 267 268 269 269 269 270 271 272 272 271 272 272 272 272 273 274 276 279 283
309 300 292 283 276 273 272 272 272 273 273 273 273 271 267 264 264 272 278 270 264 263 264 266 265 266 269 272 272 271 272 271 271 271 271 270 270 270 271 271 270 271 274
330 317 306 298 294 290 286 283 280 279 278 276 274 272 270 269 266 271 276 277 270 269 270 270 267 270 267 267 269 270 272 272 271 269 269 269 269 269 268 267 267 268 268
333 325 318 312 306 301 296 292 288 286 284 282 280 279 276 274 273 274 278 276 270 272 273 274 273 272 277 270 271 270 271 273 272 271 269 268 265 264 264 263 262 263 265
329 325 321 317 312 308 303 298 294 291 288 286 283 281 279 277 277 277 279 279 275 274 272 271 274 273 276 275 271 268 266 268 267 264 263 263 263 262 261 260 260 262 263
318 314 312 309 307 304 301 299 297 295 292 290 288 287 285 284 283 281 280 280 280 279 278 275 271 271 274 273 270 269 268 267 266 265 262 260 260 259 258 258 259 261 263
305 303 302 300 299 298 297 296 295 295 294 294 293 292 291 289 287 286 285 283 279 277 276 276 275 274 273 273 272 271 270 268 266 266 264 261 261 260 259 258 257 258 261
297 295 295 294 293 293 294 294 295 295 296 297 297 296 295 294 292 291 288 285 283 281 279 278 278 278 277 274 273 272 271 269 264 262 262 261 259 259 258 258 258 259 262